DW2513 Weather Reports


time (UTC)temp
C
wind
direction
speed
KPH
gust
KPH
rain 1hr
cm
rain 24hr
cm
rain mn
cm
humidity
%
barometer
mb
20260507084305 5 268 0.0 0.0 0.00 1.52 0.00 87 1004.2
20260507082804 6 268 0.0 0.0 0.00 1.52 0.00 87 1004.2
20260507081805 6 268 0.0 0.0 0.00 1.52 0.00 87 1004.2
20260507081304 6 268 0.0 0.0 0.00 1.52 0.00 87 1004.2
20260507080304 6 268 0.0 0.0 0.00 1.52 0.00 87 1004.2
20260507072306 6 268 0.0 0.0 0.00 1.52 0.00 86 1003.8
20260507071805 6 268 0.0 0.0 0.00 1.52 0.00 86 1003.8
20260507071304 6 268 0.0 0.0 0.00 1.52 0.00 86 1003.9
20260507070804 6 268 0.0 0.0 0.00 1.52 0.00 86 1004.4
20260507065804 6 268 0.0 0.0 0.00 1.52 0.00 87 1004.4
20260507064804 6 268 0.0 0.0 0.00 1.52 0.00 86 1004.4
20260507062306 6 268 0.0 0.0 0.00 1.52 0.00 86 1004.4
20260507061805 6 268 0.0 0.0 0.00 1.52 0.00 86 1004.4
20260507055805 6 268 0.0 0.0 0.00 1.52 0.00 86 1004.4
20260507054805 7 268 0.0 0.0 0.00 1.52 0.00 86 1004.4
20260507053805 7 268 0.0 0.0 0.00 1.52 0.00 86 1004.4
20260507053305 7 268 0.0 0.0 0.00 1.52 0.00 86 1003.9
20260507052306 7 268 0.0 0.0 0.00 1.52 0.00 86 1003.9
20260507051805 7 268 0.0 0.0 0.00 1.52 0.00 86 1003.9
20260507051304 7 268 0.0 0.0 0.00 1.52 0.00 86 1003.9
20260507050804 7 268 0.0 0.0 0.00 1.52 0.00 86 1003.9
20260507050304 7 268 0.0 0.0 0.00 1.52 0.00 86 1003.9
20260507045805 7 268 0.0 0.0 0.00 1.52 0.00 86 1003.9
20260507045306 7 268 0.0 0.0 0.00 1.52 0.00 86 1003.9
20260507043804 7 268 0.0 0.0 0.00 1.52 0.00 86 1003.9
20260507042804 8 268 0.0 0.0 0.00 1.52 0.00 86 1003.9
20260507042307 8 268 0.0 0.0 0.00 1.52 0.00 86 1003.9
20260507041805 8 268 0.0 0.0 0.00 1.52 0.00 86 1003.9
20260507040820 8 268 0.0 0.0 0.00 1.52 0.00 86 1003.9
20260507040304 8 268 0.0 0.0 0.00 1.52 0.00 86 1003.9
20260507035306 8 268 0.0 0.0 0.03 1.52 1.52 86 1003.9
20260507034305 8 268 0.0 0.0 0.03 1.52 1.52 86 1003.7
20260507032805 8 268 0.0 0.0 0.05 1.52 1.52 86 1004.2
20260507025306 8 268 0.0 0.0 0.08 1.50 1.50 85 1004.3
20260507024805 8 268 0.0 0.0 0.08 1.50 1.50 85 1004.3
20260507023805 8 268 0.0 0.0 0.10 1.50 1.50 85 1004.3
20260507021804 8 268 0.0 1.6 0.08 1.47 1.47 85 1004.2
20260507020804 8 268 0.0 0.0 0.08 1.45 1.45 85 1004.2
20260507020304 8 268 0.0 0.0 0.05 1.42 1.42 85 1004.2
20260507015805 8 268 0.0 0.0 0.05 1.42 1.42 85 1004.2
20260507015306 8 268 0.0 0.0 0.05 1.42 1.42 84 1004.2
20260507014805 8 268 0.0 0.0 0.08 1.42 1.42 84 1004.2
20260507014304 8 268 0.0 1.6 0.05 1.40 1.40 84 1003.6
20260507012306 9 295 0.0 9.7 0.08 1.40 1.40 84 1003.6
20260507011804 9 47 0.0 1.6 0.08 1.40 1.40 85 1003.6
20260507010804 9 49 0.0 1.6 0.05 1.37 1.37 85 1002.5
20260507010304 10 49 0.0 0.0 0.05 1.37 1.37 85 1002.5
20260507005804 10 48 0.0 1.6 0.05 1.37 1.37 84 1002.5
20260507004805 10 71 0.0 0.0 0.03 1.35 1.35 85 1002.5
20260507003304 10 61 0.0 1.6 0.03 1.35 1.35 84 1002.5
20260507002306 10 38 0.0 4.8 0.03 1.32 1.32 84 1002.5
20260507001804 11 13 0.0 11.3 0.03 1.32 1.32 85 1002.3
20260507001305 11 108 1.6 4.8 0.03 1.32 1.32 85 1000.6
20260507000306 11 255 1.6 8.0 0.03 1.32 1.32 85 1000.6
20260506235804 11 27 0.0 0.0 0.03 1.32 1.32 85 1000.6
20260506235306 11 27 0.0 8.0 0.05 1.32 1.32 85 1000.6
20260506234804 11 41 0.0 0.0 0.08 1.32 1.32 85 1000.6
20260506234305 11 41 0.0 0.0 0.08 1.32 1.32 85 1000.6
20260506233805 12 77 1.6 4.8 0.08 1.32 1.32 85 1000.6
20260506231804 13 35 0.0 4.8 0.05 1.30 1.30 85 1000.6
20260506230805 13 113 0.0 4.8 0.05 1.30 1.30 85 1000.6
20260506230304 14 190 0.0 0.0 0.05 1.30 1.30 85 1000.6
20260506225804 14 190 1.6 9.7 0.05 1.30 1.30 85 1000.1
20260506225305 15 236 0.0 1.6 0.03 1.27 1.27 87 1000.1
20260506224304 15 242 0.0 0.0 0.05 1.24 1.24 86 1000.1
20260506223304 15 245 0.0 0.0 0.18 1.24 1.24 86 1000.1
20260506221804 15 217 0.0 3.2 0.18 1.24 1.24 86 1000.0
20260506220804 15 150 0.0 0.0 0.20 1.24 1.24 86 1000.0
20260506220305 15 150 0.0 0.0 0.20 1.24 1.24 86 1000.0
20260506215306 15 131 0.0 3.2 0.20 1.24 1.24 86 1000.0
20260506214304 15 275 1.6 8.0 0.15 1.19 1.19 85 1000.0
20260506212804 15 230 1.6 4.8 0.03 1.09 1.07 86 1000.0
20260506210305 15 194 0.0 4.8 0.08 1.14 1.04 87 1000.0
20260506205805 15 194 1.6 4.8 0.10 1.19 1.04 87 1000.0
20260506205306 15 201 0.0 3.2 0.13 1.19 1.04 87 1000.0
20260506204804 15 207 0.0 0.0 0.15 1.19 1.04 87 1000.0
20260506204305 15 191 0.0 4.8 0.18 1.19 1.04 87 1000.0
20260506203805 15 191 0.0 0.0 0.23 1.19 1.04 87 1000.0
20260506203305 15 191 0.0 0.0 0.25 1.19 1.04 87 1000.5
20260506201804 15 246 0.0 0.0 0.43 1.17 1.02 87 1000.5
20260506201304 15 246 0.0 0.0 0.43 1.14 0.99 87 1000.5
20260506194804 15 315 0.0 0.0 0.38 1.04 0.89 86 1000.5
20260506194304 15 315 0.0 0.0 0.38 1.02 0.86 85 1001.1
20260506193805 15 319 0.0 0.0 0.36 0.97 0.81 85 1001.1
20260506193304 15 306 0.0 0.0 0.33 0.94 0.79 85 1001.1
20260506192306 15 239 0.0 3.2 0.25 0.81 0.66 85 1001.1
20260506190805 16 238 0.0 0.0 0.18 0.69 0.53 85 1001.1
20260506190306 15 238 0.0 0.0 0.18 0.69 0.53 85 1001.1
20260506185306 15 171 0.0 0.0 0.18 0.66 0.51 85 1001.1
20260506183304 15 171 0.0 0.0 0.20 0.61 0.46 84 1001.1
20260506182306 15 171 0.0 3.2 0.18 0.56 0.41 84 1002.0
20260506181805 15 171 0.0 3.2 0.18 0.53 0.38 84 1002.0
20260506175805 15 171 0.0 3.2 0.20 0.51 0.36 83 1002.0
20260506175306 15 171 0.0 0.0 0.20 0.48 0.33 83 1002.0
20260506174304 15 188 0.0 4.8 0.20 0.46 0.30 83 1002.3
20260506172306 15 225 0.0 1.6 0.18 0.38 0.23 82 1002.6
20260506171304 16 225 0.0 0.0 0.15 0.33 0.18 81 1002.6
20260506170305 16 118 0.0 0.0 0.15 0.33 0.18 81 1002.6
20260506163805 16 118 0.0 0.0 0.05 0.23 0.08 79 1002.6
20260506163304 16 118 0.0 0.0 0.05 0.23 0.08 78 1002.6
20260506162307 16 101 0.0 0.0 0.05 0.20 0.05 77 1002.7
20260506160304 16 101 0.0 0.0 0.03 0.18 0.03 75 1002.7
20260506155306 16 101 0.0 0.0 0.03 0.18 0.03 75 1003.9
20260506153304 16 101 0.0 0.0 0.03 0.18 0.03 74 1003.9
20260506152804 16 101 0.0 0.0 0.03 0.18 0.03 72 1003.9
20260506152306 16 101 0.0 0.0 0.00 0.15 0.00 71 1003.9
20260506151804 16 101 0.0 0.0 0.00 0.15 0.00 71 1003.9
20260506151304 16 101 0.0 0.0 0.00 0.15 0.00 70 1003.9
20260506150805 16 101 0.0 0.0 0.00 0.15 0.00 69 1003.9
20260506145804 16 103 0.0 0.0 0.00 0.15 0.00 68 1003.7
20260506143304 16 209 0.0 0.0 0.00 0.15 0.00 67 1003.7
20260506142804 16 208 0.0 0.0 0.00 0.15 0.00 67 1003.7
20260506141804 16 208 0.0 0.0 0.00 0.15 0.00 68 1003.7
20260506141304 16 205 0.0 0.0 0.00 0.15 0.00 68 1003.7
20260506140304 16 330 0.0 3.2 0.00 0.15 0.00 69 1003.7
20260506135306 16 167 0.0 4.8 0.00 0.15 0.00 69 1004.1
20260506134804 15 129 0.0 0.0 0.00 0.15 0.00 69 1004.1
20260506133805 15 129 0.0 0.0 0.00 0.15 0.00 70 1004.1
20260506131804 15 130 0.0 1.6 0.00 0.15 0.00 72 1004.1
20260506130804 15 258 0.0 1.6 0.00 0.15 0.00 72 1004.1
20260506125805 15 269 0.0 0.0 0.00 0.15 0.00 72 1004.1
20260506125306 15 269 0.0 0.0 0.00 0.15 0.00 72 1004.1
20260506123805 14 100 1.6 3.2 0.00 0.15 0.00 73 1004.1
20260506122306 14 205 0.0 0.0 0.00 0.15 0.00 73 1004.2
20260506121804 14 317 0.0 3.2 0.00 0.15 0.00 74 1004.2
20260506120304 13 26 0.0 0.0 0.00 0.15 0.00 74 1004.2
20260506115804 13 25 0.0 3.2 0.00 0.15 0.00 75 1004.2
20260506115307 13 26 0.0 0.0 0.00 0.15 0.00 75 1004.2
20260506113804 13 44 0.0 0.0 0.00 0.15 0.00 78 1004.2
20260506112306 13 42 0.0 0.0 0.00 0.15 0.00 78 1004.2
20260506111304 13 42 0.0 0.0 0.00 0.15 0.00 78 1004.2
20260506110305 12 42 0.0 0.0 0.00 0.15 0.00 78 1004.2
20260506103804 12 42 0.0 0.0 0.00 0.15 0.00 78 1004.2
20260506101804 12 42 0.0 0.0 0.00 0.15 0.00 76 1004.2
20260506101304 12 42 0.0 0.0 0.00 0.15 0.00 76 1004.2
20260506100805 12 42 0.0 0.0 0.00 0.15 0.00 76 1004.2
20260506100304 12 42 0.0 0.0 0.00 0.15 0.00 75 1004.2
20260506095804 12 42 0.0 0.0 0.00 0.15 0.00 75 1004.2
20260506094305 12 42 0.0 0.0 0.00 0.15 0.00 74 1004.2
20260506093805 12 42 0.0 0.0 0.00 0.15 0.00 74 1004.2
20260506091804 13 42 0.0 0.0 0.00 0.15 0.00 72 1004.2
20260506091304 13 42 0.0 0.0 0.00 0.15 0.00 72 1004.2
20260506090804 13 42 0.0 0.0 0.00 0.15 0.00 72 1004.2
20260506090304 13 42 0.0 0.0 0.00 0.15 0.00 71 1004.2